Simultaneous Nadir Overpasses (SNOs) Predictions

Prediction of SNOs between FY3D and LANDSAT-8 Satellite Orbit:

Table of predicted SNOs for the next 14.0 days since TLE Epoch: 4/6/2024
Index Date (FY3D) Time (FY3D) Lat,Lon (FY3D) SZA (FY3D ) Date (LANDSAT-8) Time (LANDSAT-8) Lat,Lon (LANDSAT-8) SZA (LANDSAT-8 ) Distance(km) Time Diff (sec)
1 04/08/2024 06:49:46 -74.20, -99.33 113.29 04/08/2024 06:50:33 -74.19, -99.32 113.30 1.57 47
2 04/08/2024 07:40:31 74.11, 68.22 66.61 04/08/2024 07:40:00 74.11, 68.14 66.61 2.37 31
3 04/10/2024 22:16:36 74.23,-151.07 65.77 04/10/2024 22:17:33 74.21,-151.02 65.75 2.78 57
4 04/10/2024 23:07:18 -74.13, 16.50 114.34 04/10/2024 23:07:02 -74.14, 16.46 114.33 1.61 16
5 04/13/2024 13:43:23 -74.27, 157.20 115.16 04/13/2024 13:44:35 -74.23, 157.26 115.19 4.15 72
6 04/13/2024 14:34:08 74.18, -35.26 64.75 04/13/2024 14:34:01 74.20, -35.18 64.77 3.30 7
7 04/13/2024 15:24:46 -73.88, 132.80 115.55 04/13/2024 15:23:34 -73.92, 131.84 115.53 30.11 72
8 04/16/2024 05:10:20 74.66, 104.49 64.28 04/16/2024 05:11:29 74.52, 106.19 64.17 52.39 69
9 04/16/2024 06:00:55 -74.21, -87.00 116.16 04/16/2024 06:01:03 -74.20, -86.93 116.18 2.66 8
10 04/16/2024 06:51:40 74.13, 80.53 63.75 04/16/2024 06:50:30 74.11, 80.50 63.72 2.56 70
11 04/18/2024 21:27:43 74.23,-138.69 62.94 04/18/2024 21:28:01 74.20,-138.67 62.91 2.88 18



Historial Predications of SNOs between FY3D and LANDSAT-8
